(107646) = 2001 EG20

Discovered at Anderson Mesa on 2001-03-15 by LONEOS.

Orbit

Orbit type: Main Belt

Note: WebGL enabled browser required.

epoch2023-09-13.0
epoch JD2460200.5
perihelion date2020-03-31.36213
perihelion JD2458939.86213
argument of perihelion (°)21.82485
ascending node (°)189.30928
inclination (°)1.87164
eccentricity0.1229447
perihelion distance (AU)2.1105170
Tisserand w.r.t. Jupiter3.5
ΔV w.r.t. Earth (km/sec)9.1
semimajor axis (AU)2.4063670
mean anomaly (°)332.85218
mean daily motion (°/day)0.26403470
aphelion distance (AU)2.702
period (years)3.73
P-vector [x]-0.85599127
P-vector [y]-0.47902836
P-vector [z]-0.19444992
Q-vector [x]0.51696327
Q-vector [y]-0.79693923
Q-vector [z]-0.31246893
absolute magnitude16.54
phase slope0.15
uncertainty0
referenceMPEC 2024-A124
observations used763
oppositions16
arc length (days)9522
first opposition used1996
last opposition used2023
residual rms (arc-secs)0.74
perturbers coarse indicatorM-v
perturbers precise indicator003Ek
first observation date used1996-12-17.0
last observation date used2023-01-12.0
computer nameMPCLINUX
JD of orbit computation2456966.795805
perihelion JD uncertainty (days)6.3086E-05
argument of perihelion uncertainty (°)9.4823E-05
ascending node uncertainty (°)9.3729E-05
inclination uncertainty (°)3.5874E-06
eccentricity uncertainty 3.2219E-08
perihelion distance uncertainty (AU)7.6398E-08
Minimum Orbit Intersection Distances (in AU)
for orbit epoch: 2460200.5, reference: E2024-AC4
Mercury1.66613
Venus1.38848
Earth1.10392
Mars0.48973
Jupiter2.25553
Saturn6.44869
Uranus16.2266
Neptune27.1365

Observations

780 total observations over interval: 1996 12 17.34109 – 2023 01 12.336431
These data are available for download (format description).

Date (UT) J2000 RA J2000 Dec Magn Location Ref
1996 12 17.34109 08 48 54.63 +14 59 54.5 20.9 V 691 – Steward Observatory, Kitt Peak-Spacewatch MPS 28181
1996 12 17.36317 08 48 54.30 +14 59 55.2 20.6 V 691 – Steward Observatory, Kitt Peak-Spacewatch MPS 28181
1996 12 17.38483 08 48 53.97 +14 59 54.9 20.6 V 691 – Steward Observatory, Kitt Peak-Spacewatch MPS 28181
1997 02 13.24482 08 01 37.56 +17 46 00.8 19.6 V 691 – Steward Observatory, Kitt Peak-Spacewatch MPS 28181
1997 02 13.25244 08 01 37.14 +17 46 02.5 20.1 V 691 – Steward Observatory, Kitt Peak-Spacewatch MPS 28181
1997 02 13.26050 08 01 36.75 +17 46 04.8 19.8 V 691 – Steward Observatory, Kitt Peak-Spacewatch MPS 28181
2001 02 19.31391 11 06 51.46 +03 53 01.1 18.7   704 – Lincoln Laboratory ETS, New Mexico MPS 28181
2001 02 19.32821 11 06 50.76 +03 53 06.2 18.8   704 – Lincoln Laboratory ETS, New Mexico MPS 28181
2001 02 19.34273 11 06 50.09 +03 53 10.8 19.0   704 – Lincoln Laboratory ETS, New Mexico MPS 28181
2001 02 19.35704 11 06 49.37 +03 53 15.4 19.1   704 – Lincoln Laboratory ETS, New Mexico MPS 28181
2001 02 19.37134 11 06 48.68 +03 53 20.4 19.3   704 – Lincoln Laboratory ETS, New Mexico MPS 28181
2001 02 20.275630 11 06 05.941 +03 58 26.93 19.12 V 645 – Apache Point-Sloan Digital Sky Survey MPS 79850
2001 02 20.279102 11 06 05.768 +03 58 28.10 19.73   645 – Apache Point-Sloan Digital Sky Survey MPS 79850
2001 03 02.31146 10 57 25.98 +05 01 00.1 18.3 R 699 – Lowell Observatory-LONEOS MPS 28181
2001 03 02.33642 10 57 24.55 +05 01 10.1   699 – Lowell Observatory-LONEOS MPS 28181
2001 03 02.36139 10 57 23.16 +05 01 20.3   699 – Lowell Observatory-LONEOS MPS 28181
2001 03 02.38639 10 57 21.74 +05 01 30.9   699 – Lowell Observatory-LONEOS MPS 28181
2001 03 15.26708 10 45 55.43 +06 26 26.5 18.4 R 699 – Lowell Observatory-LONEOS MPS 28181
2001 03 15.28190 10 45 54.72 +06 26 32.5   699 – Lowell Observatory-LONEOS MPS 28181
2001 03 15.29672 10 45 53.91 +06 26 38.1   699 – Lowell Observatory-LONEOS MPS 28181
2001 03 15.31155 10 45 53.11 +06 26 42.5   699 – Lowell Observatory-LONEOS MPS 28181
2001 03 18.24570 10 43 30.36 +06 44 56.4 18.5   704 – Lincoln Laboratory ETS, New Mexico MPS 28181
2001 03 18.25862 10 43 29.67 +06 45 01.1 18.9   704 – Lincoln Laboratory ETS, New Mexico MPS 28181
2001 03 18.27155 10 43 29.04 +06 45 05.9 18.9   704 – Lincoln Laboratory ETS, New Mexico MPS 28181
2001 03 18.28449 10 43 28.43 +06 45 10.6 19.0   704 – Lincoln Laboratory ETS, New Mexico MPS 28181
2001 03 18.29744 10 43 27.82 +06 45 15.4 18.8   704 – Lincoln Laboratory ETS, New Mexico MPS 28181
2001 03 20.35956 10 41 52.96 +06 57 33.8 19.8   608 – Haleakala-AMOS MPS 28181
2001 03 20.37021 10 41 52.45 +06 57 37.5 19.4   608 – Haleakala-AMOS MPS 28181
2001 03 20.38094 10 41 51.94 +06 57 41.1 19.7   608 – Haleakala-AMOS MPS 28181
2001 03 29.13858 10 36 12.53 +07 43 31.9 19.1 R 699 – Lowell Observatory-LONEOS MPS 28181
2001 03 29.16508 10 36 11.70 +07 43 38.0   699 – Lowell Observatory-LONEOS MPS 28181
2001 03 29.19161 10 36 10.80 +07 43 45.7   699 – Lowell Observatory-LONEOS MPS 28181
2001 03 29.21832 10 36 09.77 +07 43 53.4   699 – Lowell Observatory-LONEOS MPS 28181
2002 08 17.41095 21 54 10.63 -10 27 33.5 20.2   644 – Palomar Mountain/NEAT MPS 131569
2002 08 17.43431 21 54 09.29 -10 27 41.1 20.0   644 – Palomar Mountain/NEAT MPS 131569
2002 08 17.45660 21 54 07.97 -10 27 48.6 20.4   644 – Palomar Mountain/NEAT MPS 131569
2003 11 19.45556 04 39 25.42 +19 40 46.6 20.6 V 691 – Steward Observatory, Kitt Peak-Spacewatch MPS 90933
2003 11 19.48581 04 39 23.59 +19 40 41.9 20.7 V 691 – Steward Observatory, Kitt Peak-Spacewatch MPS 90933
2003 11 19.51258 04 39 21.99 +19 40 37.5 21.0 V 691 – Steward Observatory, Kitt Peak-Spacewatch MPS 90933
2003 11 30.37314 04 28 05.32 +19 11 06.4 20.4 V 691 – Steward Observatory, Kitt Peak-Spacewatch MPS 92669
2003 11 30.40077 04 28 03.50 +19 11 01.6 20.3 V 691 – Steward Observatory, Kitt Peak-Spacewatch MPS 92669
2003 11 30.42895 04 28 01.65 +19 10 56.8 20.2 V 691 – Steward Observatory, Kitt Peak-Spacewatch MPS 92669
2003 12 14.21672 04 13 44.74 +18 34 09.3 20.4 V 691 – Steward Observatory, Kitt Peak-Spacewatch MPS 93652
2003 12 14.24485 04 13 43.06 +18 34 05.1 20.6 V 691 – Steward Observatory, Kitt Peak-Spacewatch MPS 93652
2003 12 14.27220 04 13 41.42 +18 34 01.2 20.4 V 691 – Steward Observatory, Kitt Peak-Spacewatch MPS 93652
2003 12 21.23642 04 07 25.23 +18 18 14.4 20.1   704 – Lincoln Laboratory ETS, New Mexico MPS 94587
2003 12 21.24977 04 07 24.49 +18 18 13.2 19.7   704 – Lincoln Laboratory ETS, New Mexico MPS 94587
2003 12 21.26297 04 07 23.82 +18 18 11.3 20.3   704 – Lincoln Laboratory ETS, New Mexico MPS 94587
2003 12 27.18303 04 02 54.91 +18 07 27.0 21.2 V 691 – Steward Observatory, Kitt Peak-Spacewatch MPS 95728
2003 12 27.20953 04 02 53.75 +18 07 24.1 21.3 V 691 – Steward Observatory, Kitt Peak-Spacewatch MPS 95728
2003 12 27.23614 04 02 52.65 +18 07 22.3 21.6 V 691 – Steward Observatory, Kitt Peak-Spacewatch MPS 95728
2005 04 02.41057 14 12 32.79 -12 23 16.8 18.0 R G96 – Mt. Lemmon Survey MPS 131569
2005 04 02.41121 14 12 32.77 -12 23 16.7 17.9 R G96 – Mt. Lemmon Survey MPS 131569
2005 04 02.41587 14 12 32.54 -12 23 15.0 17.8 R G96 – Mt. Lemmon Survey MPS 131569
2005 04 02.41652 14 12 32.51 -12 23 15.0 18.1 R G96 – Mt. Lemmon Survey MPS 131569
2005 04 02.42117 14 12 32.33 -12 23 13.4 18.2 R G96 – Mt. Lemmon Survey MPS 131569
2005 04 02.42182 14 12 32.29 -12 23 13.4 18.4 R G96 – Mt. Lemmon Survey MPS 131569
2005 04 02.42647 14 12 32.12 -12 23 12.0 18.5 R G96 – Mt. Lemmon Survey MPS 131569
2005 04 02.42710 14 12 32.14 -12 23 11.7 19.1 R 699 – Lowell Observatory-LONEOS MPS 130640
2005 04 02.42712 14 12 32.09 -12 23 12.0 18.4 R G96 – Mt. Lemmon Survey MPS 131569
2005 04 02.44414 14 12 31.46 -12 23 07.8   699 – Lowell Observatory-LONEOS MPS 130640
2005 04 02.46119 14 12 30.70 -12 23 01.6   699 – Lowell Observatory-LONEOS MPS 130640
2005 04 02.47822 14 12 30.07 -12 22 57.2   699 – Lowell Observatory-LONEOS MPS 130640
2005 04 04.39118 14 11 15.07 -12 13 39.7 18.9   704 – Lincoln Laboratory ETS, New Mexico MPS 130640
2005 04 04.40159 14 11 14.60 -12 13 35.5 19.0   704 – Lincoln Laboratory ETS, New Mexico MPS 130640
2005 04 04.41279 14 11 14.14 -12 13 33.6 19.2   704 – Lincoln Laboratory ETS, New Mexico MPS 130640
2005 04 04.43373 14 11 13.15 -12 13 25.7 18.9   704 – Lincoln Laboratory ETS, New Mexico MPS 130640
2005 04 07.33093 14 09 09.93 -11 58 31.9 19.2   704 – Lincoln Laboratory ETS, New Mexico MPS 130640
2005 04 07.34249 14 09 09.45 -11 58 26.6 18.4   704 – Lincoln Laboratory ETS, New Mexico MPS 130640
2005 04 07.36542 14 09 08.33 -11 58 20.1 19.4   704 – Lincoln Laboratory ETS, New Mexico MPS 130640
2005 04 07.37663 14 09 07.79 -11 58 16.5 19.2   704 – Lincoln Laboratory ETS, New Mexico MPS 130640
2005 04 12.31081 14 05 16.21 -11 30 50.8 19.2 V 691 – Steward Observatory, Kitt Peak-Spacewatch MPS 131569
2005 04 12.32712 14 05 15.37 -11 30 45.6 18.9   704 – Lincoln Laboratory ETS, New Mexico MPS 131569
2005 04 12.32817 14 05 15.27 -11 30 44.4 19.2 V 691 – Steward Observatory, Kitt Peak-Spacewatch MPS 131569
2005 04 12.33892 14 05 14.77 -11 30 38.8 19.2   704 – Lincoln Laboratory ETS, New Mexico MPS 131569
2005 04 12.34547 14 05 14.40 -11 30 38.7 19.0 V 691 – Steward Observatory, Kitt Peak-Spacewatch MPS 131569
2005 04 12.34905 14 05 14.17 -11 30 37.5 19.7   704 – Lincoln Laboratory ETS, New Mexico MPS 131569
2005 04 12.35910 14 05 13.65 -11 30 34.2 19.7   704 – Lincoln Laboratory ETS, New Mexico MPS 131569
2005 04 12.37024 14 05 13.07 -11 30 29.9 19.2   704 – Lincoln Laboratory ETS, New Mexico MPS 131569
2005 04 13.29674 14 04 27.38 -11 25 07.7 18.4 R 699 – Lowell Observatory-LONEOS MPS 131569
2005 04 13.31707 14 04 26.27 -11 25 01.1   699 – Lowell Observatory-LONEOS MPS 131569
2005 04 13.33738 14 04 25.26 -11 24 53.6   699 – Lowell Observatory-LONEOS MPS 131569
2005 04 13.35767 14 04 24.19 -11 24 46.8   699 – Lowell Observatory-LONEOS MPS 131569
2005 04 17.28626 14 01 03.71 -11 01 30.6 18.9 V 691 – Steward Observatory, Kitt Peak-Spacewatch MPS 132528
2005 04 17.31171 14 01 02.31 -11 01 21.6 18.9 V 691 – Steward Observatory, Kitt Peak-Spacewatch MPS 132528
